Location: Chakepay
(13.3931°S, 72.1925°W)
Time: 01:32:49
(UTC+00:00)

Delta 202 - Pass Details

Date: 15 November 2019
Orbit: 781 x 2713 km, 18.5° (Epoch: 10 December)

Event Time Altitude Azimuth Distance (km) Brightness Sun altitude
Exits shadow 07:46:29 62° 167° (SSE) 1,089 4.3 -32.7°
Drops below altitude 10° 07:53:40 10° 105° (ESE) 3,254 7.5 -31.3°
Sets 07:57:13 0° 102° (ESE) 4,524 8.5 -30.5°
